Погода в Мценске

Погода в Мценске : погода сейчас, прогноз погоды и архив. Всё, что Вы хотите узнать о погоде в Мценске!

Поиск расширенной информации на нашем сайте:

Другие новости

Новости СМИ2

Главная страница сайта

Новости сайта

03.07.2017

Напоминаем, что на нашем специализированном сайте Метеоцентр.Азия вы можете получить высокодетализированные автоматические прогнозы погоды по пунктам России, СНГ и мира в авиационном формате (включающие направление и скорость ветра, видимость, явления погоды, количество и форму облачности, нижнюю и верхнюю границу облачности).


Погода в Мценске - сегодня

Время (UTC), дата Ветер
(°,м/с) 
Видим.   Явления Облачность Т
(°С)
Тd
(°С)
f(%) Тe
(°С)
Pmin
(гПа)
dP
(гПа)
Po
(мм)
O2
(г/м3)
Тmin Tmax R s Состояние
почвы
00 17.10.18 180 (Ю) 2000 м  дымка  ясно 
+6.3 +5.6 95 +7  1027.8  0.2  752  295           
09 17.10.18 240 (ЮЗ) 30000 м    ясно 
+18 +9.9 59 +20  1027.3  0.3  753  283           
12 17.10.18 300 (СЗ) 30000 м    ясно 
+20.5 +9.9 51 +21  1026.2  -0.8  752  280           
15 17.10.18 тихо ()   27000 м    ясно 
+15.5 +10 70 +17  1026  -0.7  751  285           
21 17.10.18 тихо ()   4000 м  дымка  ясно 
+7.9 +7 94 +8  1026.9  752  293           
00 18.10.18 тихо ()   2000 м  дымка  ясно 
+5.6 +4.9 95 +6  1027.2  0.1  752  296           
09 18.10.18 150 (ЮВ) 20000 м  {туман}  ясно 
+17.3 +11.8 70 +23  1024.9  -0.7  751  282           
12 18.10.18 270 (З) 29000 м  {туман}  ясно 
+20.6 +23.2 100 +47  1023.2  -1.4  750  275           
15 18.10.18 тихо ()   20000 м    3/3 600 м 
[Sc]
+15.8 +10.7 72 +18  1022.4  -1.2  749  283           
21 18.10.18 160 (Ю) 4000 м  дымка  10/10 600 м 
[Sc]
+10.2 +8.8 91 +11  1021.8  -0.5  748  289           
09 19.10.18 210 (ЮЗ) 30000 м    4/0 средняя 
[Ac trans]
+19.8 +9.9 53 +22  1017.7  -0.8  746  278           
12 19.10.18 200 (Ю) 30000 м    5/0 средняя, верхняя 
[Ac trans|Ci fib]
+21.5 +10.1 48 +23  1015.8  -1.7  744  276           
15 19.10.18 тихо ()   28000 м    5/0 средняя, верхняя 
[Ac trans|Ci fib]
+16.8 +8.4 58 +17  1015.5  -0.7  744  281           
21 19.10.18 тихо ()   4000 м  дымка  ясно 
+8.3 +7.2 93 +8  1017  0.6  744  290           
00 20.10.18 360 (С) 2000 м  дымка  ясно 
+8 +7.4 96 +8  1017.5  0.5  745  290           
09 20.10.18 350 (С) 24000 м    5/5 600 м 
[Sc]
+10.7 +6.9 77 +11  1020.4  1.1  747  289           
12 20.10.18 010 (С) 35000 м    3/0 верхняя 
[Ci fib]
+13.8 +1.6 43 +14  1019.7  -0.5  747  286           
15 20.10.18 350 (С) 30000 м    3/0 верхняя 
[Ci fib]
+9.4 +1.7 59 +10  1020.2  0.1  747  291           
21 20.10.18 360 (С) 10 км    ясно 
+4.2 +0.5 77 +4  1022.4  0.9  748  297           
00 21.10.18 360 (С) 10 км    ясно 
+2 -0.2 85 +3  1022.8  0.3  748  299           
09 21.10.18 020 (С) 20000 м    8/6 600 м средняя 
[Sc|Ac trans]
+7.8 +3.4 74 +7  1024.7  0.8  750  293           
12 21.10.18 360 (С) 24000 м    8/8 600 м кучево-дожд. 
[Cb calv]
+8.9 +3.3 68 +8  1024.6  750  292           
15 21.10.18 340 (С) 26000 м    10/10 600 м кучево-дожд. 
[Cb calv]
+7 +1.3 67 +8  1025.4  0.6  751  295           
21 21.10.18 360 (С) 10 км    8/8 600 м кучево-дожд. 
[Cb calv]
+2.4 -0.6 81 +3  1027.4  0.4  752  300           
00 22.10.18 тихо ()   10 км    10/10 600 м кучево-дожд. 
[Cb calv]
+2.2 -0.5 82 +2  1027.2  -0.2  751  300           
Время (UTC), дата Ветер
(°,м/с) 
Видим.   Явления Облачность Т
(°С)
Тd
(°С)
f(%) Тe
(°С)
Pmin
(гПа)
dP
(гПа)
Po
(мм)
O2
(г/м3)
Тmin Tmax R s Состояние
почвы

Для получения пояснительной информации подведите курсор к названию столбца.

ПОГОДА в Мценске - архив

Всё, что Вы хотите узнать о погоде в Мценске - удобно и подробно!

Выберите нужную дату (начиная с 1 января 2015* года) и нажмите кнопку "Найти".
Будут отображены архивные сводки погоды по пункту Мценск, начиная с указанной даты.


Отображать данные в формате CSV (для использования в таблицах Excel)


Внимание! Наш архив погоды предназначен исключительно для личного некоммерческого использования в познавательных целях. Если Вам необходимы официальные справки о состоянии погоды (для производственных, юридических, коммерческих и т.п. целей), обращайтесь в органы Росгидромета.

*Примечание: данная дата относится к архиву по метеостанциям СССР (Россия, СНГ, Балтия).
Архив по метеостанциям Зарубежной Европы и Азии (кроме Китая) хранится 10 дней, по другим регионам земного шара (Китай, Африка, Америка, Австралия, Океания) - 1 день.

Мценск - район местоположения метеостанции


Название, широта, долгота, высота метеостанции:
Мценск 53.4°ш. 36.5°д. 201 м над ур. моря [Российская Федерация]

Дополнительная информация

В oтличие oт бoльшинства пoгoдных сайтoв мы публикуем пoдрoбную метеoинфoрмацию в детальнoм прoфессиoнальнoм фoрмате.

Характеристики температуры и влажнoсти вoздуха измеряются на высoте 2 м в тени вдали oт зданий и деревьев.
Скoрoсть ветра измеряется на высoте 10 м (на урoвне рoста челoвека скoрoсть ветра ниже в 1.5-2 раза). Если метеoстанция нахoдится в гoрoде или в лесу, тo скoрoсть ветра занижена на 2-4 м/с пo сравнению с oткрытым местoм. Скoрoсть ветра над акватoриями крупных рек и oзёр, а также на вершинах хoлмoв на 2-5 м/с выше, чем в oбычных услoвиях.
Атмoсфернoе давление в разных тoчках местнoсти мoжет значительнo oтличаться oт давления на метеoстанции, в зависимoсти oт услoвий рельефа (при пoдъёме на 10 м давление пoнижается примернo на 1 мм рт.ст.).